Cheboygan, MI

7:56 AM EDT on June 24, 2017 (GMT -0400)
Cheboygan

Weather History for KSLH - March, 2014

Change the Weather History Date:

Saturday, March 15, 2014

  Actual Average (KMCD) Record (KMCD)
Temperature  
Mean Temperature 18 °F -  
Max Temperature 32 °F 30 °F 59 °F (2012)
Min Temperature 5 °F 17 °F 3 °F (1979)
Degree Days  
Heating Degree Days 46    
Moisture  
Dew Point 11 °F    
Average Humidity 74    
Maximum Humidity 97    
Minimum Humidity 57    
Precipitation  
Precipitation 0.00 in - - ()
Sea Level Pressure  
Sea Level Pressure 30.01 in    
Wind  
Wind Speed 15 mph (WNW)    
Max Wind Speed 25 mph    
Max Gust Speed 28 mph    
Visibility 9 miles    
Events Snow    
Averages and records for this station are not official NWS values.
T = Trace of Precipitation, MM = Missing Value Source: NWS Daily Summary

Daily Weather History Graph

Daily Weather History Graph

Search for Another Location

Airport or City:

Trip Planner

Search our weather history database for the weather conditions in past years. The results will help you decide how hot, cold, wet, or windy it might be!

Date:

Astronomy

Mar. 15, 2014 Rise Set
Actual Time 7:50 AM EDT 7:44 PM EDT
Civil Twilight 7:21 AM EDT 8:13 PM EDT
Nautical Twilight 6:46 AM EDT 8:48 PM EDT
Astronomical Twilight 6:11 AM EDT 9:23 PM EDT
Moon 7:01 PM EDT (3/15) 7:03 AM EDT (3/15)
Length of Visible Light 12h 52m
Length of Day
11h 53m
Waxing Gibbous, 99% of the Moon is Illuminated
Mar 15
Waxing Gibbous
Mar 16
Full
Mar 23
Last Quarter
Mar 30
New
Apr 7
First Quarter

Hourly Weather History & Observations

Time (EDT) Temp. Windchill Dew Point Humidity Pressure Visibility Wind Dir Wind Speed Gust Speed Precip Events Conditions
12:16 AM 32.0 °F 22.5 °F 31.3 °F 97% 29.58 in 2.0 mi West 12.7 mph - N/A Snow Light Snow
12:35 AM 31.6 °F 21.2 °F 30.2 °F 94% 29.59 in 2.5 mi West 15.0 mph - N/A Snow Light Snow
12:55 AM 30.9 °F 20.2 °F 29.7 °F 95% 29.60 in 1.8 mi West 15.0 mph 18.4 mph N/A Snow Light Snow
1:15 AM 30.6 °F 20.7 °F 29.1 °F 94% 29.60 in 2.0 mi West 12.7 mph - N/A Snow Light Snow
1:35 AM 30.0 °F 18.3 °F 28.4 °F 94% 29.61 in 2.5 mi West 17.3 mph 20.7 mph N/A Snow Light Snow
1:56 AM 28.9 °F 17.3 °F 27.1 °F 93% 29.63 in 1.8 mi West 16.1 mph 26.5 mph N/A Snow Light Snow
2:15 AM 28.9 °F 18.6 °F 27.3 °F 94% 29.63 in 2.0 mi West 12.7 mph - N/A Snow Light Snow
2:35 AM 28.4 °F 18.0 °F 26.4 °F 92% 29.64 in 3.0 mi West 12.7 mph 21.9 mph N/A Snow Light Snow
2:56 AM 28.4 °F 16.6 °F 26.6 °F 93% 29.65 in 1.8 mi West 16.1 mph 23.0 mph N/A Snow Light Snow
3:15 AM 27.9 °F 14.7 °F 25.7 °F 92% 29.67 in 1.5 mi West 19.6 mph 25.3 mph N/A Snow Light Snow
3:35 AM 27.5 °F 15.9 °F 25.2 °F 91% 29.68 in 5.0 mi WNW 15.0 mph 21.9 mph N/A Snow Light Snow
3:56 AM 27.0 °F 14.3 °F 24.1 °F 89% 29.70 in 10.0 mi West 17.3 mph 23.0 mph N/A   Overcast
4:15 AM 26.4 °F 13.6 °F 23.4 °F 88% 29.71 in 10.0 mi West 17.3 mph 24.2 mph N/A   Overcast
4:35 AM 25.7 °F 11.2 °F 22.8 °F 89% 29.72 in 7.0 mi WNW 21.9 mph 26.5 mph N/A   Overcast
4:55 AM 24.6 °F 11.3 °F 21.4 °F 87% 29.73 in 10.0 mi WNW 17.3 mph 20.7 mph N/A   Overcast
5:15 AM 23.7 °F 9.7 °F 19.9 °F 85% 29.75 in 10.0 mi WNW 18.4 mph 23.0 mph N/A   Overcast
5:36 AM 22.8 °F 9.9 °F 18.7 °F 84% 29.77 in 10.0 mi NW 15.0 mph 19.6 mph N/A   Mostly Cloudy
5:55 AM 21.7 °F 7.1 °F 17.4 °F 83% 29.79 in 10.0 mi WNW 18.4 mph - N/A   Mostly Cloudy
6:15 AM 20.3 °F 5.7 °F 15.8 °F 83% 29.82 in 10.0 mi WNW 17.3 mph 26.5 mph N/A   Scattered Clouds
6:36 AM 19.4 °F 6.0 °F 14.9 °F 83% 29.84 in 10.0 mi WNW 13.8 mph - N/A   Scattered Clouds
6:55 AM 18.9 °F 3.3 °F 14.4 °F 83% 29.85 in 10.0 mi WNW 18.4 mph 24.2 mph N/A   Clear
7:15 AM 18.3 °F 4.6 °F 13.1 °F 80% 29.87 in 10.0 mi WNW 13.8 mph 21.9 mph N/A   Clear
7:35 AM 17.6 °F 2.7 °F 12.2 °F 79% 29.88 in 10.0 mi WNW 16.1 mph 21.9 mph N/A   Clear
7:55 AM 17.1 °F 3.0 °F 11.7 °F 79% 29.90 in 10.0 mi NW 13.8 mph 21.9 mph N/A   Clear
8:16 AM 16.7 °F 1.5 °F 11.1 °F 79% 29.91 in 10.0 mi WNW 16.1 mph - N/A   Clear
8:35 AM 16.3 °F 0.1 °F 10.8 °F 79% 29.93 in 10.0 mi NW 18.4 mph 24.2 mph N/A   Scattered Clouds
8:56 AM 16.2 °F 1.9 °F 10.6 °F 79% 29.94 in 10.0 mi NW 13.8 mph 20.7 mph N/A   Scattered Clouds
9:15 AM 16.2 °F 2.5 °F 10.4 °F 78% 29.96 in 10.0 mi NW 12.7 mph - N/A   Scattered Clouds
9:35 AM 16.2 °F 2.5 °F 10.8 °F 79% 29.97 in 10.0 mi NW 12.7 mph - N/A   Mostly Cloudy
9:56 AM 16.0 °F 2.9 °F 10.0 °F 77% 29.98 in 10.0 mi NW 11.5 mph 18.4 mph N/A   Mostly Cloudy
10:15 AM 17.1 °F 2.5 °F 10.4 °F 75% 29.99 in 10.0 mi WNW 15.0 mph 19.6 mph N/A Snow Light Snow
10:35 AM 17.1 °F 0.1 °F 9.1 °F 71% 30.00 in 10.0 mi NW 20.7 mph 25.3 mph N/A   Mostly Cloudy
10:56 AM 17.2 °F 2.2 °F 9.5 °F 72% 30.01 in 10.0 mi NW 16.1 mph 21.9 mph N/A   Scattered Clouds
11:15 AM 17.2 °F 1.7 °F 9.5 °F 72% 30.02 in 10.0 mi WNW 17.3 mph - N/A   Mostly Cloudy
11:36 AM 17.8 °F 3.4 °F 9.9 °F 71% 30.04 in 10.0 mi WNW 15.0 mph 19.6 mph N/A   Mostly Cloudy
11:55 AM 18.0 °F 5.4 °F 9.3 °F 69% 30.04 in 10.0 mi WNW 11.5 mph 18.4 mph N/A   Overcast
12:15 PM 18.5 °F 3.8 °F 8.8 °F 66% 30.05 in 10.0 mi West 16.1 mph 21.9 mph N/A   Overcast
12:35 PM 18.7 °F 4.6 °F 8.8 °F 65% 30.06 in 10.0 mi West 15.0 mph 21.9 mph N/A   Overcast
12:55 PM 19.4 °F 4.1 °F 8.8 °F 63% 30.07 in 10.0 mi West 18.4 mph 23.0 mph N/A   Overcast
1:16 PM 19.8 °F 5.4 °F 8.6 °F 62% 30.07 in 10.0 mi WNW 16.1 mph - N/A   Overcast
1:35 PM 19.8 °F 5.9 °F 8.6 °F 62% 30.08 in 10.0 mi West 15.0 mph 23.0 mph N/A   Overcast
1:55 PM 19.9 °F 4.3 °F 8.1 °F 60% 30.09 in 10.0 mi West 19.6 mph - N/A   Overcast
2:16 PM 20.3 °F 6.1 °F 8.2 °F 60% 30.10 in 10.0 mi WNW 16.1 mph 23.0 mph N/A   Overcast
2:35 PM 19.8 °F 5.4 °F 8.1 °F 61% 30.10 in 10.0 mi WNW 16.1 mph 21.9 mph N/A   Overcast
2:55 PM 19.9 °F 6.2 °F 7.2 °F 58% 30.11 in 10.0 mi WNW 15.0 mph 21.9 mph N/A   Overcast
3:16 PM 20.5 °F 4.3 °F 8.6 °F 60% 30.12 in 10.0 mi WNW 21.9 mph 26.5 mph N/A   Overcast
3:35 PM 20.1 °F 4.6 °F 9.3 °F 63% 30.13 in 10.0 mi West 19.6 mph 26.5 mph N/A   Overcast
3:56 PM 20.1 °F 4.6 °F 9.0 °F 62% 30.14 in 10.0 mi West 19.6 mph 26.5 mph N/A   Overcast
4:15 PM 19.6 °F 3.1 °F 8.2 °F 61% 30.15 in 10.0 mi West 21.9 mph 25.3 mph N/A   Overcast
4:35 PM 19.9 °F 4.3 °F 8.6 °F 61% 30.15 in 10.0 mi WNW 19.6 mph 25.3 mph N/A   Overcast
4:56 PM 18.7 °F 1.9 °F 7.5 °F 62% 30.16 in 10.0 mi West 21.9 mph 27.6 mph N/A   Overcast
5:15 PM 19.2 °F 3.4 °F 7.7 °F 61% 30.17 in 10.0 mi West 19.6 mph 27.6 mph N/A   Mostly Cloudy
5:35 PM 18.5 °F 0.6 °F 8.2 °F 64% 30.18 in 10.0 mi West 25.3 mph - N/A   Overcast
5:55 PM 18.1 °F 2.0 °F 6.4 °F 60% 30.20 in 10.0 mi NW 19.6 mph - N/A   Overcast
6:15 PM 17.4 °F 1.5 °F 4.6 °F 57% 30.21 in 10.0 mi NW 18.4 mph 27.6 mph N/A   Mostly Cloudy
6:36 PM 16.7 °F 0.5 °F 4.6 °F 59% 30.23 in 10.0 mi WNW 18.4 mph 25.3 mph N/A   Mostly Cloudy
6:55 PM 15.8 °F -0.6 °F 3.4 °F 58% 30.24 in 10.0 mi WNW 18.4 mph 24.2 mph N/A   Overcast
7:15 PM 14.9 °F 1.6 °F 2.7 °F 58% 30.25 in 10.0 mi NW 11.5 mph 25.3 mph N/A   Mostly Cloudy
7:36 PM 13.3 °F -2.9 °F 2.3 °F 62% 30.27 in 10.0 mi NW 16.1 mph 19.6 mph N/A   Scattered Clouds
7:55 PM 12.2 °F -3.1 °F 1.6 °F 63% 30.28 in 10.0 mi NW 13.8 mph 20.7 mph N/A   Clear
8:15 PM 11.3 °F -2.9 °F 1.2 °F 64% 30.29 in 10.0 mi NW 11.5 mph 19.6 mph N/A   Clear
8:36 PM 10.4 °F -4.8 °F -0.4 °F 62% 30.31 in 10.0 mi NW 12.7 mph 20.7 mph N/A   Clear
8:55 PM 9.5 °F -5.2 °F 1.0 °F 69% 30.32 in 10.0 mi NW 11.5 mph 17.3 mph N/A   Clear
9:16 PM 9.1 °F -4.0 °F 0.1 °F 67% 30.33 in 10.0 mi NW 9.2 mph - N/A   Clear
9:35 PM 8.4 °F -7.9 °F -0.6 °F 67% 30.34 in 10.0 mi WNW 13.8 mph - N/A   Clear
9:55 PM 7.5 °F -7.7 °F -0.6 °F 70% 30.35 in 10.0 mi WNW 11.5 mph - N/A   Clear
10:16 PM 6.8 °F -8.6 °F -0.8 °F 71% 30.35 in 10.0 mi WNW 11.5 mph - N/A   Clear
10:35 PM 6.3 °F -8.4 °F -0.9 °F 72% 30.36 in 10.0 mi WNW 10.4 mph - N/A   Clear
10:55 PM 5.9 °F -10.5 °F -1.3 °F 72% 30.36 in 10.0 mi WNW 12.7 mph - N/A   Clear
11:16 PM 5.5 °F -9.3 °F -1.3 °F 73% 30.37 in 10.0 mi NW 10.4 mph - N/A   Clear
11:35 PM 5.4 °F -8.6 °F -1.3 °F 74% 30.37 in 10.0 mi WNW 9.2 mph - N/A   Clear
11:55 PM 5.0 °F -9.1 °F -1.5 °F 75% 30.38 in 10.0 mi NW 9.2 mph - N/A   Clear